[[{"header":{"parameterUnit":"m.s-1","parameterCategory":1,"la1":30.2991,"la2":30.254,"lo1":-89.0895,"lo2":-89.0444,"dy":0.0017,"dx":0.0017,"nx":28,"ny":28,"refTime":"2025-07-11T03:00:00:Z","depth":0,"parameterNumber":2,"parameterNumberName":"U-component_of_WINDS"},"data":[0,0,0,0,0,0,0,0,0,0,0,0,0,0,0,0,0,0,0,0,0,0,0,0,0,0,0,0,0,0,0,0,0,0,0,0,0,0,0,0,0,0,0,0,0,0,0,0,0,0,0,0,0,0,0,0,0,0,0.7569,0.757,0,0.7747,0.7749,0.7751,0.7827,0.7827,0.7826,0.7826,0.8012,0.8017,0.8022,0,0,0,0,0,0,0,0,0,0,0,0,0,0.7295,0.73,0.7568,0.7571,0.7573,0.7746,0.7749,0.7751,0.7827,0.7827,0.7826,0.7826,0.801,0.8016,0.8022,0,0,0,0,0,0,0,0,0,0,0,0,0,0.7438,0.7301,0.7568,0.7631,0.7639,0.7746,0.7749,0.7752,0.7827,0.7827,0.7826,0.7826,0.8008,0.8016,0.8023,0.8081,0,0,0.8047,0.8051,0,0,0,0,0,0,0,0,0.7429,0.7448,0.762,0.7627,0.7636,0.7764,0.7721,0.7863,0.7827,0.7756,0.7826,0.7825,0.793,0.7944,0.7979,0.809,0.8098,0.8048,0.8053,0.8056,0.8058,0,0,0,0,0,0,0,0.7419,0.744,0.7639,0.7622,0.7632,0.7652,0.7671,0.7748,0.7843,0.7762,0.7768,0.7788,0.7934,0.7971,0.7984,0.8101,0.8048,0.8055,0.806,0.8063,0.8267,0.8268,0,0,0,0,0,0,0.7399,0.7432,0.7633,0.7644,0.7529,0.7657,0.7679,0.7723,0.7843,0.786,0.7788,0.7791,0.7958,0.7974,0.799,0.8066,0.8056,0.8064,0.8068,0.8267,0.8268,0.8268,0,0,0,0,0,0,0.7393,0.7416,0.7626,0.754,0.7568,0.7662,0.7711,0.7727,0.7764,0.7862,0.788,0.7808,0.7958,0.7979,0.8058,0.8073,0.8067,0.8074,0.8266,0.8267,0.8268,0.8217,0,0,0,0,0,0,0.7385,0.7413,0.7436,0.754,0.7572,0.769,0.7712,0.7731,0.7777,0.7782,0.7886,0.7903,0.7959,0.8046,0.8065,0.8084,0.808,0.8265,0.8266,0.8268,0.8217,0.8216,0.8214,0,0,0,0,0,0.7375,0.7416,0.7437,0.7461,0.7603,0.7691,0.7709,0.7773,0.7778,0.7802,0.7865,0.7899,0.8068,0.8053,0.8076,0.8097,0.8264,0.8266,0.8268,0.8218,0.8216,0.8214,0,0,0,0,0,0,0.7314,0.7431,0.7456,0.7531,0.76,0.7703,0.7735,0.7769,0.7839,0.7841,0.7918,0.7941,0.8012,0.8063,0.8044,0.8159,0.8169,0.8175,0.8123,0.8122,0.8121,0.8108,0.8087,0,0,0,0,0,0.7308,0.7369,0.7469,0.7526,0.7559,0.7641,0.7682,0.7724,0.7799,0.7829,0.7898,0.797,0.8039,0.8084,0.8153,0.8224,0.8248,0.825,0.8249,0.8247,0.8252,0.8293,0.8295,0.8274,0.8274,0.8274,0,0,0.73,0.7371,0.7405,0.7515,0.7574,0.7636,0.7665,0.773,0.7776,0.784,0.7917,0.797,0.8055,0.813,0.8167,0.8174,0.8262,0.8249,0.8247,0.8253,0.8294,0.8296,0.8298,0.8275,0.8275,0.8274,0,0,0.7315,0.7375,0.7429,0.7486,0.7573,0.7627,0.764,0.7737,0.7774,0.7853,0.7901,0.7958,0.8076,0.8135,0.818,0.8214,0.8249,0.8235,0.8227,0.8266,0.8268,0.827,0.8282,0.8285,0.8239,0.8239,0.8239,0,0.7293,0.7387,0.7452,0.7514,0.756,0.7618,0.7673,0.7726,0.7832,0.7863,0.787,0.8018,0.808,0.8168,0.8176,0.8211,0.8228,0.8224,0.8262,0.8265,0.8267,0.828,0.8284,0.8236,0.8237,0.8237,0.8237,0,0.7356,0.742,0.7453,0.7552,0.7603,0.7661,0.7734,0.7778,0.7815,0.7868,0.7947,0.8023,0.8108,0.8132,0.817,0.8226,0.8228,0.8247,0.8259,0.8266,0.8279,0.8284,0.8233,0.8234,0.8235,0.8235,0,0,0.7339,0.7472,0.7483,0.7528,0.7627,0.7679,0.7739,0.782,0.7856,0.7926,0.7979,0.8076,0.8094,0.8145,0.819,0.8224,0.8245,0.8239,0.8242,0.8238,0.8311,0.8295,0.83,0.8268,0.8269,0.827,0.8303,0,0.7368,0.7477,0.7536,0.7621,0.7681,0.7736,0.7788,0.7855,0.7905,0.7964,0.802,0.8088,0.8107,0.8138,0.8173,0.8235,0.8261,0.8233,0.8318,0.832,0.8295,0.8307,0.8292,0.832,0.8309,0.831,0.831,0,0.7417,0.7484,0.7574,0.7665,0.7693,0.7739,0.7818,0.7873,0.7949,0.7984,0.8039,0.8083,0.8148,0.8154,0.8245,0.8225,0.8263,0.8298,0.83,0.8312,0.8316,0.8318,0.833,0.8334,0.8319,0.8318,0.8318,0,0.7395,0.7509,0.7577,0.7614,0.7722,0.7753,0.78,0.7876,0.792,0.7989,0.8019,0.8095,0.8137,0.8194,0.8258,0.8256,0.8342,0.8353,0.8373,0.8371,0.839,0.8388,0.8408,0.8413,0.8413,0.8413,0.8412,0,0.7421,0.7474,0.7569,0.7611,0.7671,0.7739,0.7797,0.7848,0.7915,0.7968,0.802,0.8069,0.8149,0.8208,0.8258,0.8325,0.8344,0.8373,0.8386,0.8369,0.8365,0.8396,0.8396,0.8414,0.8413,0.8413,0.8413,0,0.7408,0.7473,0.7551,0.7647,0.7672,0.7712,0.7794,0.7837,0.7889,0.7955,0.7975,0.8057,0.8129,0.8197,0.8294,0.8327,0.8394,0.8411,0.8368,0.8375,0.8391,0.8389,0.8432,0.8441,0.8439,0.8439,0.8439,0,0.742,0.7462,0.7561,0.76,0.7645,0.7707,0.7752,0.782,0.7865,0.7954,0.7986,0.8061,0.8125,0.8236,0.8305,0.8379,0.8398,0.8408,0.8409,0.839,0.8398,0.8395,0.8399,0.8406,0.8406,0.8406,0.8406,0,0.7435,0.7465,0.7528,0.7602,0.7654,0.7716,0.778,0.7809,0.7888,0.7936,0.8009,0.8058,0.8155,0.8229,0.831,0.8359,0.8396,0.8404,0.8413,0.8396,0.837,0.8384,0.8364,0.8403,0.8404,0.8404,0.8404,0.8404,0.7436,0.7475,0.755,0.7619,0.7673,0.7731,0.7775,0.7832,0.7894,0.7977,0.8013,0.8087,0.8162,0.8274,0.8322,0.838,0.8389,0.8401,0.8405,0.8407,0.8403,0.8359,0.8395,0.8396,0.8396,0.8396,0.8396,0,0.7454,0.7504,0.7566,0.7653,0.7706,0.7734,0.7805,0.7848,0.7912,0.7978,0.8039,0.8122,0.8193,0.8267,0.8342,0.8375,0.8394,0.8393,0.8391,0.8402,0.8391,0.8376,0.8376,0.8376,0.8376,0.8376,0.8376,0.8376,0.7469,0.7537,0.7575,0.767,0.7721,0.7793,0.7831,0.7884,0.7937,0.8027,0.8086,0.8133,0.8202,0.8282,0.8349,0.8369,0.8394,0.8388,0.8413,0.8402,0.8403,0.8404,0.839,0.8393,0.8393,0.8419,0.8419,0.8419]},{"header":{"parameterUnit":"m.s-1","parameterCategory":1,"la1":30.2991,"la2":30.254,"lo1":-89.0895,"lo2":-89.0444,"dy":0.0017,"dx":0.0017,"nx":28,"ny":28,"refTime":"2025-07-11T03:00:00:Z","depth":0,"parameterNumber":3,"parameterNumberName":"V-component_of_WINDS"},"data":[0,0,0,0,0,0,0,0,0,0,0,0,0,0,0,0,0,0,0,0,0,0,0,0,0,0,0,0,0,0,0,0,0,0,0,0,0,0,0,0,0,0,0,0,0,0,0,0,0,0,0,0,0,0,0,0,0,0,3.8747,3.8747,0,3.8672,3.8671,3.867,3.8665,3.8666,3.8667,3.8667,3.858,3.8577,3.8574,0,0,0,0,0,0,0,0,0,0,0,0,0,3.8878,3.8876,3.8747,3.8747,3.8746,3.8672,3.8671,3.867,3.8665,3.8666,3.8667,3.8668,3.8581,3.8577,3.8574,0,0,0,0,0,0,0,0,0,0,0,0,0,3.8814,3.8875,3.8748,3.8734,3.8732,3.8672,3.8671,3.8669,3.8664,3.8666,3.8667,3.8668,3.8582,3.8578,3.8573,3.8518,0,0,3.8559,3.8557,0,0,0,0,0,0,0,0,3.8817,3.8809,3.8737,3.8735,3.8733,3.8679,3.8685,3.8618,3.8664,3.869,3.8667,3.8669,3.8611,3.8604,3.8587,3.8514,3.851,3.8558,3.8556,3.8553,3.8552,0,0,0,0,0,0,0,3.8822,3.8812,3.8717,3.8736,3.8734,3.8729,3.8721,3.8672,3.8644,3.8688,3.8687,3.8679,3.861,3.8592,3.8585,3.8509,3.8559,3.8554,3.8551,3.855,3.8385,3.8383,0,0,0,0,0,0,3.883,3.8816,3.872,3.8715,3.878,3.8726,3.8717,3.8695,3.8645,3.8638,3.8678,3.8679,3.8599,3.859,3.8582,3.8513,3.8554,3.8549,3.8546,3.8386,3.8385,3.8383,0,0,0,0,0,0,3.8833,3.8822,3.8723,3.8765,3.8752,3.8722,3.8697,3.8693,3.8674,3.8637,3.8631,3.8665,3.86,3.8588,3.8534,3.851,3.8547,3.8543,3.8388,3.8386,3.8384,3.8376,0,0,0,0,0,0,3.8837,3.8823,3.8804,3.8765,3.875,3.8679,3.8696,3.869,3.8667,3.8668,3.8623,3.8617,3.86,3.8541,3.853,3.8504,3.8539,3.839,3.8387,3.8384,3.8378,3.8373,3.837,0,0,0,0,0,3.8842,3.8802,3.8803,3.8791,3.8726,3.8678,3.8669,3.8653,3.8665,3.8644,3.862,3.8618,3.8515,3.8536,3.8523,3.8495,3.8392,3.8388,3.8385,3.838,3.8374,3.837,0,0,0,0,0,0,3.8835,3.8797,3.8797,3.8745,3.8715,3.8677,3.865,3.8648,3.8611,3.8613,3.8592,3.8582,3.8528,3.8506,3.853,3.8439,3.8454,3.8448,3.8455,3.8449,3.8445,3.8451,3.8535,0,0,0,0,0,3.8829,3.8796,3.8763,3.872,3.8705,3.868,3.8659,3.865,3.8616,3.8603,3.8575,3.854,3.85,3.8473,3.8434,3.8375,3.8364,3.835,3.8345,3.8342,3.8336,3.8302,3.8295,3.8371,3.8371,3.8372,0,0,3.8813,3.8788,3.8768,3.8718,3.8694,3.8657,3.867,3.863,3.8602,3.8596,3.8544,3.8522,3.8481,3.8425,3.8398,3.8404,3.8313,3.8338,3.8335,3.8331,3.8298,3.8291,3.8284,3.8369,3.837,3.837,0,0,3.8766,3.8745,3.8706,3.8683,3.8647,3.8631,3.8622,3.8584,3.8571,3.8519,3.8513,3.8478,3.8409,3.8381,3.8357,3.83,3.8295,3.8287,3.8264,3.8231,3.8225,3.822,3.8198,3.8191,3.8282,3.8282,3.8282,0,3.875,3.8698,3.8686,3.8648,3.8625,3.8621,3.858,3.8556,3.8508,3.8491,3.8501,3.8415,3.8387,3.8323,3.8309,3.8291,3.8277,3.8292,3.8228,3.8222,3.8217,3.8196,3.8188,3.8281,3.8281,3.8281,3.8281,0,3.868,3.8643,3.8616,3.8574,3.8548,3.8508,3.8488,3.8462,3.8455,3.8437,3.8383,3.8351,3.8305,3.8289,3.828,3.8223,3.8228,3.8233,3.8248,3.8209,3.8189,3.8181,3.828,3.828,3.828,3.8281,0,0,3.8625,3.8578,3.8568,3.8549,3.851,3.848,3.8439,3.8398,3.8376,3.8342,3.8306,3.8249,3.8253,3.8226,3.8214,3.8185,3.814,3.8193,3.8192,3.8183,3.8073,3.807,3.8061,3.8138,3.8137,3.8135,3.8077,0,3.8573,3.8505,3.8493,3.8431,3.8397,3.8392,3.8357,3.8327,3.8309,3.8274,3.8253,3.8213,3.8222,3.8206,3.8177,3.8152,3.8118,3.8156,3.8101,3.8099,3.8111,3.8051,3.8046,3.7993,3.8069,3.8067,3.8066,0,3.8503,3.8472,3.8408,3.8374,3.8359,3.8327,3.8288,3.8256,3.8221,3.821,3.8181,3.8172,3.8127,3.8145,3.8081,3.8107,3.8084,3.8068,3.8066,3.8059,3.808,3.8041,3.7975,3.7967,3.8054,3.8055,3.8056,0,3.8469,3.841,3.8365,3.8348,3.8307,3.8285,3.8266,3.8233,3.8209,3.8173,3.8157,3.8115,3.8092,3.8059,3.8038,3.8053,3.7974,3.7991,3.7961,3.7962,3.7944,3.7945,3.7873,3.7931,3.7931,3.7931,3.7931,0,3.8411,3.8372,3.8349,3.8321,3.8276,3.8261,3.8216,3.8197,3.8168,3.8134,3.8126,3.8093,3.8069,3.8032,3.8015,3.7963,3.7953,3.794,3.7936,3.7941,3.7942,3.7924,3.7927,3.7929,3.7929,3.793,3.793,0,3.8365,3.8348,3.8298,3.8264,3.8255,3.8223,3.8192,3.8163,3.8146,3.8102,3.8091,3.8062,3.8018,3.7995,3.7939,3.7928,3.7869,3.7868,3.7882,3.788,3.7851,3.7854,3.7764,3.775,3.7819,3.7818,3.7818,0,3.8329,3.8299,3.8263,3.8241,3.8223,3.8187,3.8164,3.8147,3.8122,3.8081,3.8056,3.8012,3.7977,3.7906,3.7878,3.7834,3.7831,3.7802,3.7824,3.7829,3.7829,3.7831,3.7827,3.7798,3.7797,3.7797,3.7796,0,3.8266,3.826,3.8227,3.8192,3.8164,3.8134,3.8105,3.8086,3.8065,3.8036,3.7993,3.7966,3.791,3.7866,3.7821,3.7798,3.7792,3.779,3.7781,3.7784,3.7793,3.7787,3.7871,3.7792,3.7792,3.7792,3.7793,3.7793,3.8223,3.8196,3.8167,3.8131,3.8108,3.808,3.8052,3.8032,3.7997,3.7952,3.7944,3.7898,3.7862,3.7802,3.7778,3.7739,3.7744,3.7731,3.7727,3.7724,3.7722,3.7801,3.7731,3.7731,3.7731,3.7731,3.7731,0,3.8159,3.814,3.8108,3.8068,3.8039,3.8041,3.8008,3.7982,3.7943,3.7912,3.7878,3.7828,3.7785,3.7755,3.771,3.7685,3.7681,3.7674,3.7675,3.7669,3.7721,3.7733,3.7678,3.7678,3.7678,3.7678,3.7678,3.7678,3.8122,3.8077,3.8067,3.8009,3.799,3.7948,3.7929,3.7903,3.7878,3.7824,3.779,3.7771,3.774,3.7693,3.7653,3.7645,3.7628,3.7621,3.7612,3.766,3.7666,3.7671,3.7682,3.7617,3.7617,3.7564,3.7563,3.7563]}]]